Regional Weather Roundup
Issued by NWS Sioux Falls, SD

Home | Current Version | Previous Version | Text Only | Print | Product List | Glossary On
Versions: 1 2 3 4 5 6 7 8 9 10 11 12 13 14 15 16 17 18 19 20 21 22 23 24 25 26 27 28 29 30 31 32 33 34 35 36 37 38 39 40 41 42 43 44 45 46 47 48 49 50
000
ASUS43 KFSD 212210
RWRFSD

WEATHER ROUNDUP FOR SE SOUTH DAKOTA/SW MINNESOTA/NW IOWA
NATIONAL WEATHER SERVICE SIOUX FALLS SD
500 PM CDT THU SEP 21 2017

NOTE: "FAIR" INDICATES FEW OR NO CLOUDS BELOW 12,000 FEET WITH NO
SIGNIFICANT WEATHER AND OR OBSTRUCTIONS TO VISIBILITY.


SDZ038>040-050-052>070-212300-
SOUTHEAST SOUTH DAKOTA

CITY           SKY/WX    TMP DP  RH WIND       PRES   REMARKS
BROOKINGS      SUNNY     84  68  58 S23G32    29.68F
CHAMBERLAIN    SUNNY     91  56  31 S21       29.61F
HURON          MOSUNNY   84  68  58 S20       29.63F
MADISON        FAIR      82  70  65 S23G31    29.68F
MITCHELL       SUNNY     88  65  46 S14G25    29.63F
SIOUX FALLS    MOSUNNY   86  71  60 S17G28    29.68F
WINNER         FAIR      88  57  34 S14       29.62F
YANKTON        SUNNY     89  70  53 SE20      29.65F
$$

MNZ071-072-080-081-089-090-097-098-212300-
SOUTHWEST MINNESOTA

CITY           SKY/WX    TMP DP  RH WIND       PRES   REMARKS
FAIRMONT       MOSUNNY   87  70  56 S18G31    29.77F
JACKSON        PTSUNNY   84  68  58 S17G24    29.78F
LUVERNE        SUNNY     84  68  58 SE20      29.72S
MARSHALL       MOSUNNY   85  73  67 SE16      29.69F
MONTEVIDEO     MOSUNNY   86  70  58 S12G18    29.70F
PIPESTONE      SUNNY     84  70  61 S21G28    29.71F
REDWOOD FALLS  PTSUNNY   85  70  60 S21G26    29.73F
TRACY          MOSUNNY   85  72  65 S17G29    29.72F
WINDOM         SUNNY     84  70  61 S15G23    29.75F
WORTHINGTON    CLOUDY    82  71  69 S17G28    29.75F
$$

IAZ001>003-012>014-020>022-031-032-NEZ013-014-SDZ071-212300-
NORTHWEST IOWA

CITY           SKY/WX    TMP DP  RH WIND       PRES   REMARKS
CHEROKEE       SUNNY     84  74  70 S21G26    29.74F
DENISON        SUNNY     86  73  66 S15G28    29.77F
ESTHERVILLE    MOSUNNY   85  70  60 S18G25    29.77F
LE MARS        SUNNY     88  73  62 S18G32    29.70S HX  96
ORANGE CITY    SUNNY     88  73  62 S12G24    29.72F HX  96
SHELDON        MOSUNNY   84  72  65 SE18G29   29.71F
SIOUX CITY     SUNNY     89  73  59 S20G29    29.69F HX  97
SPENCER        MOSUNNY   86  70  58 S17G26    29.75F
STORM LAKE     SUNNY     84  72  65 S18G29    29.76F
$$

ABBREVIATIONS USED IN REMARKS
   TC - TEMPERATURE IN CELSIUS
  WCI - WIND CHILL INDEX
   HX - HEAT INDEX
  VSB - VISIBILITY





USA.gov is the U.S. government's official web portal to all federal, state and local government web resources and services.